GFSCGP_850_spd_336.txt.gz
Wind_Speed
8 1 7 13 11 7 7 5 7 6 8 2 7 9 14 27 22 16 20 23 24 16 7 13 13 13 13 13 16 18 19 25 19 23 32 28 26 20 14 18 16 18 20 20
6 7 11 10 12 6 8 3 6 9 3 5 8 9 3 13 9 10 16 25 26 21 14 13 15 13 10 8 12 17 20 23 22 20 26 27 24 19 17 16 20 22 22 22
5 11 15 8 10 9 3 6 4 8 9 10 14 6 2 2 8 11 13 25 25 25 16 16 19 16 10 13 11 15 16 16 17 20 21 21 22 22 23 17 18 18 20 22
7 8 6 7 5 4 3 3 2 6 4 4 9 4 2 3 5 9 12 19 23 17 9 12 12 10 8 8 9 9 8 8 7 10 17 17 25 23 23 20 22 22 24 24
12 5 5 4 6 5 7 6 2 3 3 3 3 5 3 3 6 7 5 5 13 8 7 6 3 2 3 3 1 0 2 4 6 8 10 15 19 28 26 24 23 21 23 25
8 10 6 8 5 2 5 1 7 6 4 3 4 5 4 5 6 4 8 14 15 9 9 8 4 5 6 2 2 2 1 3 2 6 9 12 16 18 23 26 29 27 22 22
6 5 5 3 2 7 8 6 4 5 5 5 3 3 4 6 8 7 12 16 12 13 14 9 9 8 4 3 1 1 3 4 6 8 8 11 13 16 19 23 28 29 29 23
4 6 4 2 5 6 2 6 5 4 3 3 4 2 4 5 16 14 12 18 21 15 8 5 3 4 5 2 6 5 4 5 9 10 9 7 12 17 24 24 19 21 25 24
4 4 4 4 3 5 4 2 5 4 0 2 3 1 3 4 7 4 19 18 12 7 6 5 7 4 2 1 1 1 1 5 4 6 7 12 16 15 20 23 20 23 25 22
6 7 5 5 3 3 4 2 2 3 2 4 2 2 4 7 9 9 13 13 10 8 12 8 6 6 6 3 4 5 7 7 8 9 13 13 16 16 18 20 23 19 21 26
4 3 7 4 3 3 4 2 5 4 4 3 1 4 5 9 7 11 15 13 8 10 9 6 4 2 6 11 10 10 7 9 11 14 16 14 19 16 21 21 18 23 25 23
3 3 3 3 5 2 2 3 4 4 5 1 4 5 5 8 15 17 12 9 4 4 6 6 4 5 10 9 8 7 10 11 12 14 12 20 19 16 19 21 21 26 25 23
3 3 3 8 6 6 2 1 3 4 3 2 4 4 2 10 12 14 11 7 7 5 10 5 2 6 5 4 3 5 6 7 7 10 18 16 15 17 19 22 24 22 19 13
3 2 5 5 7 3 5 4 3 4 4 2 4 5 7 9 10 16 16 10 8 7 7 1 2 5 4 1 1 3 5 9 14 15 18 19 17 17 17 22 25 21 22 12
4 2 2 6 6 5 5 2 2 3 6 6 6 10 13 10 9 15 13 13 11 9 5 6 5 5 6 6 7 9 14 16 17 21 20 14 14 17 22 25 24 22 22 13
1 3 2 5 6 8 1 7 3 6 11 8 6 1 5 9 14 16 15 14 12 13 10 7 6 7 7 10 11 12 14 18 21 20 14 9 10 16 20 25 19 18 13 9
3 2 1 4 5 7 4 7 7 4 8 4 5 7 8 5 11 13 12 12 16 12 8 6 8 9 9 9 10 15 19 22 22 19 17 15 15 17 18 20 18 15 16 14
3 2 2 3 5 3 1 3 7 6 5 6 6 5 6 8 13 13 14 14 12 7 5 6 8 9 9 12 16 19 20 18 17 19 21 20 15 15 18 20 17 16 13 15
5 4 3 2 1 1 1 3 2 1 2 5 7 5 11 20 20 15 11 8 8 6 6 7 8 10 10 13 17 20 18 18 23 20 18 20 19 14 16 18 17 17 14 12
7 7 5 2 2 2 3 3 6 4 2 3 11 5 4 6 3 2 9 7 6 5 5 7 7 7 11 15 19 22 21 22 19 20 18 17 16 15 14 16 17 18 13 8
3 3 4 2 1 5 8 11 5 1 6 5 9 8 9 5 6 12 7 4 3 4 6 6 5 10 15 18 20 21 20 17 17 18 16 15 14 17 17 14 15 15 11 6
3 4 2 2 2 3 5 3 0 3 4 11 14 12 17 17 13 10 7 5 3 5 7 6 11 14 17 20 17 20 21 18 16 19 16 15 14 16 17 15 12 9 10 7
3 4 4 6 4 3 5 12 8 5 10 12 9 9 7 10 7 4 2 1 3 7 7 7 11 14 19 17 16 18 21 20 19 19 18 15 17 19 14 14 13 10 8 9
7 2 3 2 1 6 10 7 5 7 8 6 6 10 7 9 4 2 1 1 5 7 8 7 10 14 16 19 15 16 18 18 20 19 18 14 14 18 14 9 10 8 5 8
2 3 2 3 4 6 7 10 9 10 8 12 11 8 6 4 3 3 4 5 8 10 7 8 11 13 15 14 18 14 18 19 20 17 18 14 12 18 13 13 10 7 5 11
4 1 3 2 2 6 2 7 7 15 13 9 5 4 5 6 9 7 8 9 9 8 8 10 15 15 14 15 17 16 16 15 17 16 19 14 11 14 12 13 10 5 3 8

GFSCGP_850_spd_339.txt.gz
Wind_Speed
2 4 4 12 11 2 5 4 4 2 6 7 7 9 17 24 19 17 25 27 24 25 11 14 14 12 11 13 14 17 19 24 25 27 25 25 29 31 30 26 25 19 18 19
5 4 11 4 4 7 7 5 7 4 3 4 6 4 10 17 18 20 22 22 26 23 18 17 15 13 13 11 11 11 15 18 20 22 23 28 27 27 26 21 22 22 21 18
6 11 5 3 4 9 3 6 6 7 4 4 6 1 3 6 11 13 17 24 26 26 19 17 16 13 13 11 9 11 12 12 14 16 18 24 24 24 24 21 20 23 20 20
6 8 1 4 6 5 5 9 6 7 6 4 3 4 5 6 7 8 14 22 24 25 22 19 17 13 12 7 8 9 9 10 12 16 18 19 22 23 22 26 30 26 25 23
12 4 1 1 6 7 9 7 4 3 3 5 0 2 4 3 5 6 9 8 12 12 12 11 11 10 10 9 8 6 8 9 9 11 14 18 20 20 19 22 23 24 25 25
10 3 4 6 4 3 2 1 2 3 3 3 3 5 3 5 6 4 4 9 14 14 14 14 12 10 11 10 7 7 9 8 8 9 12 17 20 18 19 21 24 26 25 27
6 6 5 2 2 2 2 5 4 4 4 5 2 1 6 5 5 10 12 17 17 17 16 14 12 13 10 9 7 6 6 9 10 9 11 12 16 17 20 24 25 27 27 22
3 7 3 2 5 5 1 6 5 5 4 4 3 3 3 3 10 13 16 19 16 16 14 11 8 10 12 9 5 7 9 11 12 12 12 14 15 18 23 23 22 23 23 24
2 4 4 1 2 4 1 3 3 5 2 2 2 5 5 1 3 8 10 15 16 14 14 13 13 13 10 7 10 10 15 16 15 13 12 12 17 18 22 20 22 23 22 20
8 3 3 5 7 3 3 2 2 3 2 5 2 4 5 7 9 5 10 22 19 15 14 13 11 9 9 10 9 15 16 15 13 13 13 14 15 19 22 22 22 23 21 25
2 3 5 3 1 4 4 3 5 4 3 3 1 5 6 9 11 10 16 20 16 14 17 13 11 10 9 8 13 14 13 11 12 13 14 14 19 23 20 21 23 23 24 26
3 4 1 4 4 4 3 2 4 4 3 1 3 6 2 9 11 20 23 20 16 15 14 11 11 9 11 11 11 10 9 10 11 11 14 21 24 22 21 22 21 21 25 24
1 3 3 8 6 6 3 3 3 4 3 4 4 6 1 4 11 23 22 18 13 10 14 12 9 8 9 10 9 8 10 10 11 16 19 20 23 21 19 19 22 25 27 25
1 3 4 4 6 2 5 6 2 5 3 3 5 3 4 6 7 13 15 12 12 12 12 9 6 4 5 6 5 7 11 13 14 16 20 21 17 15 17 21 23 24 23 24
4 1 2 4 6 5 7 5 2 2 3 3 6 5 5 12 9 18 16 10 9 12 9 7 6 4 2 4 7 8 10 13 17 18 19 18 15 13 16 20 22 20 18 18
2 2 3 5 4 5 3 10 7 6 3 3 0 5 3 6 14 9 11 10 12 13 10 6 2 2 5 5 5 7 12 15 17 17 16 18 19 16 14 16 18 17 15 15
3 2 3 4 7 7 4 5 2 1 1 3 3 5 1 6 5 4 7 11 14 10 5 1 3 5 4 3 7 10 15 16 15 18 19 17 15 14 13 14 17 15 15 14
4 3 2 3 6 3 3 2 4 2 4 6 4 5 8 12 11 9 9 12 9 5 1 3 6 4 4 7 10 15 16 16 18 15 15 13 14 13 12 14 17 15 15 14
5 4 2 1 1 4 1 3 1 3 3 5 5 7 15 18 16 11 8 5 3 1 3 5 7 5 6 10 15 17 18 16 14 14 15 14 12 12 14 16 16 17 16 12
8 6 4 1 1 2 1 2 3 2 4 4 4 7 9 2 2 3 7 3 2 3 4 7 5 4 9 15 17 17 20 15 12 14 15 13 12 13 17 20 17 16 14 9
3 3 3 2 1 5 4 7 2 3 5 0 1 2 4 2 3 8 9 7 5 4 5 4 3 7 13 17 16 15 18 17 16 16 16 15 14 16 17 18 13 14 12 10
3 3 2 2 1 3 6 3 3 4 2 2 7 7 6 7 8 8 7 7 7 6 4 4 5 11 15 16 14 14 16 16 17 17 17 16 15 17 16 13 14 12 9 9
2 4 3 5 4 4 4 4 5 3 4 8 7 7 6 10 8 7 7 8 6 6 8 7 7 12 14 14 14 14 16 18 18 17 17 18 13 17 15 14 13 12 7 9
5 2 3 3 2 2 2 2 2 3 5 7 6 10 7 5 3 4 7 8 8 8 10 9 10 12 15 14 16 17 16 16 17 15 18 19 12 14 15 14 11 9 9 8
2 3 1 2 4 3 5 1 3 7 6 7 8 4 2 2 3 5 6 8 10 9 11 11 13 14 16 16 18 18 16 17 18 16 16 19 14 13 15 15 13 8 7 6
5 2 3 3 3 2 4 4 8 8 9 3 1 4 5 5 8 9 9 7 8 10 12 13 12 13 17 18 18 18 19 18 18 19 17 16 12 11 14 14 11 9 10 10

GFSCGP_850_spd_342.txt.gz
Wind_Speed
3 4 5 12 12 6 5 6 8 3 5 4 9 6 11 19 16 16 21 22 23 20 15 16 15 17 16 14 11 11 14 15 19 21 23 22 24 26 25 25 23 22 23 21
4 4 11 4 5 5 5 3 6 3 2 2 3 3 7 15 19 17 19 22 24 21 18 17 17 17 15 12 11 12 11 11 13 15 17 19 21 22 22 22 19 20 22 22
5 10 4 3 3 3 4 5 5 4 4 2 5 4 6 7 15 17 20 22 24 22 20 19 18 17 16 15 10 13 12 11 11 12 15 19 21 22 25 23 21 20 23 23
5 5 3 3 5 7 5 7 4 6 4 4 2 4 5 6 9 17 19 20 25 24 23 21 19 17 14 13 12 13 11 9 9 13 15 17 19 24 25 24 21 20 21 22
12 4 3 4 6 7 9 4 5 4 4 3 1 2 5 1 6 10 18 25 23 24 24 19 16 15 14 13 15 12 6 8 10 12 13 13 17 19 22 23 22 23 23 23
10 2 4 8 4 5 3 3 6 4 4 1 4 5 6 4 6 4 13 15 13 13 14 13 13 14 15 16 13 9 8 10 9 12 12 13 15 17 20 22 25 29 29 26
5 6 4 3 0 3 7 5 3 3 2 5 4 3 8 5 7 6 11 14 14 15 16 15 14 14 13 13 11 9 10 9 11 12 14 14 14 16 19 22 24 26 28 28
3 8 1 0 4 5 6 7 5 6 4 5 3 5 5 5 8 9 13 15 16 16 16 15 15 14 14 13 10 10 11 12 14 15 15 15 17 17 20 23 27 29 26 26
6 6 3 3 2 6 3 3 4 4 2 2 2 6 6 1 2 4 12 15 16 17 18 17 16 15 16 11 9 10 10 16 16 16 16 18 18 20 20 24 27 27 26 26
2 3 1 4 2 3 2 4 2 3 2 4 3 4 5 5 8 7 9 17 18 17 17 15 14 15 15 10 10 13 15 17 15 16 19 19 20 20 23 27 27 28 27 27
2 3 5 2 1 2 3 2 6 4 3 2 2 6 6 8 10 10 16 20 21 17 14 14 13 14 16 13 15 18 18 16 16 17 18 20 20 23 24 27 26 25 25 25
1 4 2 4 4 3 1 1 3 4 4 1 3 6 2 6 10 15 18 18 18 15 14 14 14 14 14 16 16 16 14 15 17 18 18 20 24 27 30 29 24 24 27 27
5 1 3 7 6 5 3 2 4 4 3 5 3 6 2 6 6 7 14 17 16 12 14 13 12 12 13 14 12 11 13 16 17 18 21 25 30 32 30 24 24 26 27 27
3 3 5 5 6 2 5 7 2 4 3 1 4 7 6 6 5 1 8 11 9 8 9 10 7 5 2 3 7 11 14 15 19 23 25 27 27 26 25 24 24 25 26 25
4 3 1 4 5 2 2 5 3 2 1 2 6 3 6 6 7 7 7 4 4 5 9 8 4 1 4 8 12 13 14 17 21 24 26 24 25 25 24 23 21 21 22 22
3 1 1 3 3 3 3 6 4 4 1 3 4 5 3 9 5 5 2 5 8 9 6 3 1 4 9 11 11 12 15 18 23 23 24 25 25 22 21 19 19 20 22 22
3 3 3 4 5 2 3 3 3 2 3 2 3 4 9 8 12 8 7 10 13 8 5 1 5 8 9 8 10 13 17 19 21 23 22 22 21 20 19 17 18 19 21 21
4 3 2 2 5 3 3 2 2 1 2 5 4 4 6 8 11 10 9 11 9 4 1 5 7 7 7 8 12 17 17 20 19 18 18 19 19 17 17 18 20 20 20 20
2 5 3 2 1 4 1 3 2 4 3 4 4 3 8 10 8 8 6 3 1 2 4 5 7 6 6 11 15 14 15 18 19 18 18 18 19 19 20 23 23 21 18 18
5 6 4 2 2 2 2 3 1 2 4 5 6 7 6 3 4 4 5 3 3 4 5 8 8 6 9 13 14 16 15 17 19 18 19 21 21 19 22 24 21 19 16 16
3 3 3 2 0 4 3 8 2 4 5 3 2 1 2 2 4 3 5 5 6 6 6 9 7 6 12 11 14 16 16 18 19 20 21 21 23 19 20 21 16 18 16 13
3 3 1 3 1 1 6 2 3 3 1 2 0 0 2 3 1 1 4 8 9 7 9 10 9 9 11 12 14 18 16 15 18 22 22 21 24 17 19 19 16 15 14 12
1 4 3 4 4 3 5 2 2 1 1 2 3 4 4 2 3 6 10 12 11 10 10 10 11 12 12 13 15 17 18 17 23 23 21 19 22 15 17 19 16 14 11 10
3 2 3 2 2 3 2 1 2 1 1 2 4 5 3 3 5 7 10 11 13 12 11 10 12 14 15 15 17 18 17 22 24 21 19 18 22 14 16 17 16 13 9 11
1 3 1 1 3 5 2 5 3 2 1 1 4 3 3 6 6 10 12 11 11 12 12 13 14 15 15 16 18 17 17 22 25 19 17 18 16 15 16 14 14 16 14 14
3 3 3 3 2 1 7 5 4 3 3 1 4 3 4 9 12 13 15 14 13 13 13 17 17 16 14 17 17 15 15 20 22 17 16 12 14 15 15 16 15 13 11 11

GFSCGP_850_spd_345.txt.gz
Wind_Speed
4 5 8 10 13 13 8 8 13 5 4 9 14 17 11 13 17 17 17 19 20 20 18 21 20 17 18 19 19 15 15 12 14 16 18 18 19 20 18 18 20 21 18 15
3 9 12 4 7 10 8 7 8 2 2 10 4 14 11 14 19 22 20 19 21 19 17 18 18 16 16 15 15 13 11 10 12 14 15 14 16 17 17 17 19 19 17 16
5 6 3 7 3 5 6 8 9 5 6 2 3 8 6 7 16 18 23 20 18 20 19 17 16 17 16 17 15 12 12 13 13 11 12 12 13 14 16 18 19 17 16 15
6 1 3 2 10 3 13 6 10 5 5 8 2 5 4 5 11 18 22 26 22 19 19 17 17 18 18 17 18 13 13 11 9 9 10 11 10 11 15 18 18 19 20 22
12 9 9 12 11 5 13 1 2 5 4 3 5 4 4 3 8 15 20 23 25 19 17 18 17 18 17 14 11 11 9 8 7 7 9 10 12 14 16 16 18 20 23 25
14 2 5 13 12 7 4 3 3 3 1 6 4 6 4 4 3 4 5 16 17 17 16 19 20 16 11 9 6 8 9 7 10 10 11 13 15 16 18 17 19 20 23 26
5 7 4 5 5 3 2 2 5 5 4 9 4 5 9 4 6 9 8 8 10 10 11 13 12 11 11 6 8 10 6 9 10 13 16 18 19 20 21 21 22 23 26 30
6 10 6 4 4 2 3 3 4 9 10 12 3 5 2 1 8 6 6 7 9 11 12 12 12 12 8 1 14 10 7 10 12 17 19 21 21 23 23 22 24 25 29 31
6 6 2 3 2 3 3 4 2 2 1 4 1 4 7 2 6 5 5 7 12 13 13 13 11 10 9 10 12 10 11 14 17 19 20 22 23 23 23 24 26 29 30 30
3 3 1 2 3 7 1 3 3 1 4 5 1 4 5 6 7 7 9 13 12 10 10 12 11 12 9 9 16 16 17 21 23 21 20 22 22 23 25 26 27 28 29 28
4 1 1 3 1 0 1 2 2 0 2 3 5 5 5 9 8 7 10 11 9 9 10 12 11 12 10 15 16 18 20 22 21 20 20 21 22 24 26 29 30 29 26 25
1 3 2 1 1 2 1 1 1 3 2 0 2 3 4 8 11 10 10 9 10 8 9 7 7 6 11 13 18 18 17 15 17 18 19 20 23 28 30 31 27 23 25 26
3 1 2 1 3 2 2 2 2 2 1 4 6 3 5 10 10 9 8 2 5 4 2 2 3 8 8 14 12 13 12 13 16 18 22 25 27 29 28 27 24 23 25 27
3 2 2 3 2 2 4 8 4 2 2 1 2 8 11 17 15 11 7 8 8 7 4 3 4 6 9 5 8 11 14 15 18 22 25 29 30 28 29 28 26 23 23 24
2 3 2 2 2 2 2 4 5 2 3 4 8 9 11 13 12 8 7 7 8 8 6 3 5 6 5 8 11 12 14 18 22 26 28 28 28 27 24 23 22 19 19 21
1 1 0 2 0 3 4 3 1 5 6 4 7 6 12 10 7 6 4 5 7 9 5 3 2 3 8 10 10 12 17 22 24 24 23 22 21 22 21 20 19 19 20 21
1 3 1 1 5 5 3 3 5 3 5 3 7 4 9 7 10 9 6 4 6 2 3 1 3 7 10 10 12 16 20 19 20 21 18 18 19 21 21 21 22 24 24 22
4 3 1 2 4 2 3 1 1 2 6 5 3 2 5 5 5 5 4 4 4 2 1 4 6 10 9 10 15 16 17 17 19 20 18 19 21 23 23 23 25 27 24 19
2 3 2 2 1 2 2 2 1 2 4 4 2 1 3 2 4 1 2 2 2 2 4 5 10 9 7 12 12 16 17 17 18 17 19 21 22 26 25 22 25 24 22 18
5 5 0 2 1 2 3 3 1 1 2 2 1 1 3 4 5 5 3 4 4 5 6 7 10 8 7 9 13 16 17 16 15 18 23 23 22 27 25 21 24 23 21 17
1 2 1 2 2 1 2 7 1 3 4 1 1 1 4 3 4 6 3 5 8 8 7 9 9 8 8 10 14 16 17 16 18 22 24 22 24 26 21 20 23 23 19 15
0 2 2 2 2 2 5 1 1 3 2 1 1 1 1 3 3 4 7 9 10 9 9 10 10 10 10 13 17 19 18 16 22 23 24 21 23 21 18 20 22 20 16 13
1 1 1 1 2 1 2 3 2 4 2 1 2 2 4 1 3 4 6 8 10 10 10 11 10 12 11 13 17 22 21 19 23 25 20 19 19 16 15 19 20 18 14 13
2 2 2 4 2 1 0 1 3 3 2 1 2 4 3 3 3 5 10 12 12 11 10 11 13 14 15 13 17 21 23 21 23 24 18 17 13 15 16 16 14 17 16 15
1 1 3 3 2 2 2 3 3 2 2 3 3 4 2 4 5 8 11 14 14 14 12 13 15 17 17 16 19 20 18 19 22 22 18 12 12 14 14 14 16 19 15 17
1 2 1 3 2 2 4 6 2 2 2 2 3 3 4 7 10 13 16 16 17 17 16 17 18 19 17 18 20 16 15 18 21 20 13 11 10 12 13 14 14 11 11 11